TimeCDT,TemperatureF,Dew PointF,Humidity,Sea Level PressureIn,VisibilityMPH,Wind Direction,Wind SpeedMPH,Gust SpeedMPH,PrecipitationIn,Events,Conditions,WindDirDegrees,DateUTC
12:53 AM,64.9,35.1,33,29.81,10.0,SSE,17.3,24.2,N/A,,Clear,160,2013-10-09 05:53:00
1:53 AM,64.9,36.0,34,29.79,10.0,SSE,16.1,-,N/A,,Unknown,150,2013-10-09 06:53:00
2:53 AM,63.0,37.0,38,29.80,10.0,South,13.8,-,N/A,,Clear,170,2013-10-09 07:53:00
3:53 AM,63.0,37.0,38,29.79,10.0,SSE,12.7,20.7,N/A,,Clear,160,2013-10-09 08:53:00
4:53 AM,62.1,37.9,41,29.80,10.0,SSE,12.7,-,N/A,,Unknown,150,2013-10-09 09:53:00
5:53 AM,61.0,37.0,41,29.82,10.0,SSE,9.2,-,N/A,,Partly Cloudy,160,2013-10-09 10:53:00
6:53 AM,60.1,37.9,44,29.82,10.0,SSE,12.7,-,N/A,,Mostly Cloudy,150,2013-10-09 11:53:00
7:53 AM,57.9,37.9,47,29.84,10.0,SSE,16.1,-,N/A,,Scattered Clouds,160,2013-10-09 12:53:00
8:53 AM,61.0,37.9,42,29.86,10.0,SE,8.1,-,N/A,,Clear,140,2013-10-09 13:53:00
9:53 AM,69.1,39.9,35,29.88,10.0,SE,5.8,-,N/A,,Clear,130,2013-10-09 14:53:00
11:53 AM,-9999,-9999,N/A,-9999,-9999.0,North,-9999.0,-,N/A,,Unknown,0,2013-10-09 16:53:00
12:53 PM,82.9,41.0,23,29.97,10.0,ESE,15.0,-,N/A,,Clear,120,2013-10-09 17:53:00
1:53 PM,87.1,41.0,20,29.94,10.0,East,15.0,-,N/A,,Clear,100,2013-10-09 18:53:00
2:53 PM,90.0,39.9,17,29.90,10.0,SSE,13.8,19.6,N/A,,Clear,150,2013-10-09 19:53:00
3:53 PM,88.0,41.0,19,29.89,10.0,ESE,17.3,29.9,N/A,,Partly Cloudy,120,2013-10-09 20:53:00
4:53 PM,86.0,42.1,21,29.88,10.0,SE,17.3,28.8,N/A,,Clear,130,2013-10-09 21:53:00
5:53 PM,84.0,44.1,25,29.89,10.0,SE,21.9,31.1,N/A,,Clear,140,2013-10-09 22:53:00
6:53 PM,81.0,45.0,28,29.89,10.0,SSE,18.4,33.4,N/A,,Clear,150,2013-10-09 23:53:00
7:53 PM,75.9,48.0,37,29.91,10.0,SE,18.4,27.6,N/A,,Clear,140,2013-10-10 00:53:00
8:53 PM,73.0,48.9,42,29.92,10.0,SSE,20.7,26.5,N/A,,Clear,150,2013-10-10 01:53:00
9:53 PM,71.1,50.0,47,29.93,10.0,SSE,21.9,29.9,N/A,,Clear,160,2013-10-10 02:53:00
10:53 PM,70.0,51.1,51,29.95,10.0,SSE,24.2,32.2,N/A,,Clear,160,2013-10-10 03:53:00
11:53 PM,69.1,51.1,53,29.95,10.0,SSE,24.2,29.9,N/A,,Clear,160,2013-10-10 04:53:00